DW4362 Weather Reports


time (UTC)temp
C
wind
direction
speed
KPH
gust
KPH
rain 1hr
cm
rain 24hr
cm
rain mn
cm
humidity
%
barometer
mb
20260904163202 31 329 0.0 0.0 0.00 1.40 0.00 77 1014.4
20260904153202 29 46 0.0 0.0 0.00 1.40 0.00 87 1014.3
20260904150202 29 1 0.0 0.0 0.00 1.40 0.00 85 1014.3
20260904143202 29 86 0.0 3.2 0.00 1.40 0.00 85 1014.3
20260904140202 27 306 0.0 3.2 0.00 1.40 0.00 95 1014.1
20260904133202 25 301 0.0 0.0 0.00 1.40 0.00 95 1013.9
20260904130201 25 289 0.0 0.0 0.00 1.40 0.00 95 1013.8
20260904123202 24 289 0.0 0.0 0.00 1.40 0.00 95 1013.6
20260904120202 23 288 0.0 0.0 0.00 1.40 0.00 95 1013.5
20260904113201 23 288 0.0 0.0 0.00 1.40 0.00 95 1013.2
20260904110201 23 288 0.0 0.0 0.00 1.40 0.00 95 1013.0
20260904103201 23 288 0.0 0.0 0.00 1.40 0.00 94 1012.9
20260904100201 23 288 0.0 0.0 0.00 1.40 0.00 94 1012.6
20260904093201 23 288 0.0 0.0 0.00 1.40 0.00 94 1012.5
20260904090201 23 289 0.0 0.0 0.00 1.40 0.00 94 1012.6
20260904083201 23 289 0.0 0.0 0.00 1.42 0.00 94 1012.5
20260904080201 23 289 0.0 0.0 0.00 1.42 0.00 94 1012.5
20260904073200 23 271 0.0 0.0 0.00 1.42 0.00 94 1012.5
20260904070200 23 271 0.0 0.0 0.00 1.42 0.00 94 1012.6
20260904060200 23 96 0.0 0.0 0.00 1.42 0.00 95 1013.1
20260904053200 23 96 0.0 0.0 0.03 1.42 0.00 95 1013.4
20260904043200 23 98 0.0 0.0 1.37 1.40 1.40 95 1014.0
20260904040159 25 124 3.2 8.0 0.61 0.64 0.64 93 1014.7
20260904033159 26 172 0.0 0.0 0.00 0.03 0.03 92 1013.4
20260904030159 26 172 0.0 0.0 0.00 0.03 0.03 92 1013.3
20260904023159 26 172 0.0 0.0 0.00 0.03 0.03 93 1013.3
20260904020159 26 172 0.0 0.0 0.00 0.03 0.03 92 1013.3
20260904013159 26 172 0.0 0.0 0.00 0.03 0.03 91 1013.0
20260904003159 27 172 0.0 0.0 0.00 0.03 0.03 89 1012.7
20260904000159 28 172 0.0 0.0 0.00 0.03 0.03 88 1012.3
20260903233158 28 172 0.0 0.0 0.00 0.03 0.03 85 1012.2
20260903230159 29 197 0.0 0.0 0.00 0.03 0.03 85 1012.1
20260903223158 29 151 0.0 0.0 0.00 0.03 0.03 82 1012.2
20260903220158 30 160 0.0 0.0 0.00 0.03 0.03 77 1012.1
20260903213158 30 160 0.0 0.0 0.00 0.03 0.03 76 1012.2
20260903203158 32 99 0.0 3.2 0.00 0.03 0.03 64 1012.8
20260903200228 33 171 0.0 3.2 0.00 0.10 0.03 61 1013.1
20260903193158 33 13 3.2 8.0 0.00 0.64 0.03 60 1013.4
20260903183158 31 82 3.2 3.2 0.00 0.64 0.03 73 1014.0
20260903180228 31 234 0.0 0.0 0.00 0.64 0.03 70 1014.3
20260903173158 31 84 3.2 3.2 0.00 0.64 0.03 70 1014.6